Location: Innsbruck
(47.2657°N, 11.3914°E)
Time: 01:49:57
(UTC+02:00)

Envisat - Pass Details

Date: 06 February 2023
Orbit: 763 x 765 km, 98.2° (Epoch: 28 March)

Event Time Altitude Azimuth Distance (km) Brightness Sun altitude
Rises 03:11:01 0° 27° (NNE) 3,243 6.8 -44.0°
Reaches altitude 10° 03:14:00 10° 45° (NE) 2,311 6.0 -43.6°
Enters shadow 03:14:36 12° 50° (NE) 2,155 5.9 -43.5°
